Regional Weather Roundup
Issued by NWS State College, PA

Home | Current Version | Previous Version | Text Only | Print | Product List | Glossary On
Versions: 1 2 3 4 5 6 7 8 9 10 11 12 13 14 15 16 17 18 19 20 21 22 23 24 25 26 27 28 29 30 31 32 33 34 35 36 37 38 39 40 41 42 43 44 45 46 47 48 49 50
000
ASUS41 KCTP 200303
RWRCTP

REGIONAL WEATHER ROUNDUP
NATIONAL WEATHER SERVICE STATE COLLEGE PA
1000 PM EST MON FEB 19 2018

Note: "fair" indicates few or no clouds below 12,000 feet with no
significant weather and/or obstructions to visibility.

* = STATION THAT DOES NOT REPORT PRECIPITATION /E.G. RAIN...SNOW...ETC/
    THUNDER OR FOG.

PAZ002>004-007>009-013>016-020>023-029>032-200400-
WESTERN PENNSYLVANIA

CITY           SKY/WX    TMP DP  RH WIND       PRES   REMARKS
ERIE           MOCLDY    63  55  75 S18G26    30.03R
MEADVILLE      CLOUDY    58  55  90 VRB7      30.08R
FRANKLIN*      FAIR      54  52  93 S9        30.11R
NEW CASTLE     FAIR      61  57  87 S9        30.10S
BEAVER COUNTY  NOT AVBL
BUTLER*        FAIR      59  54  83 S9        30.13S
PITTSBURGH INT MOCLDY    62  53  72 S6        30.13R
PITTSBURGH     FAIR      62  52  69 S12       30.14S
INDIANA*       PTCLDY    50  50 100 CALM      30.19S
LATROBE        NOT AVBL
WASHINGTON CO* CLOUDY    63  54  72 S8        30.18R
$$

PAZ004>006-010>012-017>019-024>028-033>037-041-042-045-046-049>053-200400-
CENTRAL PENNSYLVANIA

CITY           SKY/WX    TMP DP  RH WIND       PRES   REMARKS
BRADFORD       CLOUDY    50  49  96 S5        30.14R
DUBOIS         FAIR      47  45  93 CALM      30.14F
CLEARFIELD     CLOUDY    39  38  96 N6        30.19S FOG
JOHNSTOWN      FAIR      52  47  83 S7        30.20S
ALTOONA        FAIR      40  38  93 W5        30.24F FOG
STATE COLLEGE  PTCLDY    39  37  93 CALM      30.24F
WILLIAMSPORT   CLOUDY    40  40 100 SE8       30.27S FOG
SELINSGROVE    FOG       39  39 100 CALM      30.30S VSB 1/4
FT INDIANTOWN  FOG       39  39 100 CALM      30.31F VSB 1/4
CAPITAL CITY   CLOUDY    45  45 100 CALM      30.31F FOG
HARRISBURG     FOG       42  41  96 E3        30.31S VSB 1
YORK           CLOUDY    45  45 100 VRB3      30.31F FOG
$$

PAZ038>040-043-044-047-048-054-055-060>062-067>071-200400-
EASTERN PENNSYLVANIA

CITY           SKY/WX    TMP DP  RH WIND       PRES   REMARKS
SCRANTON       FAIR      43  41  93 S3        30.26F
MOUNT POCONO   FOG       41  41 100 SW8       30.27F VSB 3/4
ALLENTOWN      FOG       38  36  92 CALM      30.33F VSB 1/4
QUAKERTOWN*    FOG       37  37 100 CALM      30.34R VSB 1/4
READING        FOG       38  38 100 CALM      30.32S VSB 1/4
LANCASTER      FOG       42  42 100 E3        30.32S VSB 1/4
COATESVILLE    CLOUDY    43 N/A N/A CALM      30.34S
POTTSTOWN      FOG       40  40 100 CALM      30.35R VSB 1/2
BLUE BELL      CLOUDY    45  45 100 CALM      30.35S VSB 1/2
DOYLESTOWN     FOG       42  42 100 CALM      30.33R VSB 1
WILLOW GROVE   NOT AVBL
NORTH PHILA    LGT RAIN  50  48  93 CALM      30.35F VSB 1/2
PHILADELPHIA   FOG       47  46  97 SW3       30.35S VSB 3/4
$$



USA.gov is the U.S. government's official web portal to all federal, state and local government web resources and services.